When you browse on this site, cookies collect data to enhance your experience and personalize the content and advertising you see.
Visit our Privacy Policy to learn more. By continuing to use the site, you agree to this use of cookies and data.
  • In Österreich
  • Länderverzeichnis
  • Für 7 Tage
  • Wassertemperatur
  • Wetterkarte
  • News
  • Widgets
  • user-avatar
    Anmelden

    Stündliche Wetter López

    Heute, 17 September, Dienstag

    Zeit Temperatur Niederschläge Wind Luftdruck Luftfeuchtigkeit
    00:00 +15°C° 0.1 mm 0 m/S 624 mmHg 92%
    01:00 +16°C° 0.1 mm 1 m/S 624 mmHg 91%
    02:00 +15°C° 0 mm 0 m/S 624 mmHg 91%
    03:00 +15°C° 0 mm 0 m/S 623 mmHg 91%
    04:00 +15°C° 0 mm 0 m/S 623 mmHg 91%
    05:00 +15°C° 0 mm 0 m/S 623 mmHg 89%
    06:00 +16°C° 0 mm 0 m/S 624 mmHg 88%
    07:00 +16°C° 0 mm 0 m/S 624 mmHg 86%
    08:00 +18°C° 0 mm 0 m/S 625 mmHg 77%
    09:00 +23°C° 0 mm 1 m/S 627 mmHg 67%
    10:00 +25°C° 0 mm 1 m/S 628 mmHg 58%
    11:00 +26°C° 0.2 mm 1 m/S 627 mmHg 57%
    12:00 +26°C° 0.2 mm 2 m/S 627 mmHg 57%
    13:00 +26°C° 0.2 mm 2 m/S 626 mmHg 57%
    14:00 +25°C° 1.1 mm 2 m/S 625 mmHg 64%
    15:00 +24°C° 1.1 mm 2 m/S 624 mmHg 71%
    16:00 +23°C° 1.1 mm 1 m/S 624 mmHg 78%
    17:00 +21°C° 0.8 mm 1 m/S 624 mmHg 83%
    18:00 +20°C° 0.8 mm 1 m/S 623 mmHg 89%
    19:00 +18°C° 0.8 mm 1 m/S 623 mmHg 94%
    20:00 +18°C° 0.7 mm 1 m/S 623 mmHg 94%
    21:00 +18°C° 0.7 mm 1 m/S 624 mmHg 93%
    22:00 +18°C° 0.7 mm 1 m/S 624 mmHg 93%
    23:00 +16°C° 0.4 mm 1 m/S 624 mmHg 93%

    Morgen, 18 September, Mittwoch

    Zeit Temperatur Niederschläge Wind Luftdruck Luftfeuchtigkeit
    00:00 +16°C° 0.4 mm 1 m/S 624 mmHg 92%
    01:00 +16°C° 0.4 mm 1 m/S 624 mmHg 92%
    02:00 +15°C° 0.1 mm 0 m/S 623 mmHg 92%
    03:00 +15°C° 0.1 mm 0 m/S 623 mmHg 91%
    04:00 +15°C° 0.1 mm 0 m/S 623 mmHg 91%
    05:00 +15°C° 0 mm 0 m/S 623 mmHg 90%
    06:00 +15°C° 0 mm 0 m/S 624 mmHg 88%
    07:00 +16°C° 0 mm 0 m/S 624 mmHg 87%
    08:00 +18°C° 0 mm 0 m/S 625 mmHg 80%
    09:00 +22°C° 0 mm 1 m/S 626 mmHg 73%
    10:00 +24°C° 0 mm 1 m/S 627 mmHg 66%
    11:00 +24°C° 0.4 mm 1 m/S 626 mmHg 68%
    12:00 +24°C° 0.4 mm 1 m/S 625 mmHg 71%
    13:00 +24°C° 0.4 mm 1 m/S 625 mmHg 73%
    14:00 +23°C° 1.4 mm 1 m/S 624 mmHg 78%
    15:00 +22°C° 1.4 mm 1 m/S 624 mmHg 83%
    16:00 +21°C° 1.4 mm 1 m/S 623 mmHg 87%
    17:00 +20°C° 0.8 mm 1 m/S 623 mmHg 90%
    18:00 +19°C° 0.8 mm 1 m/S 623 mmHg 93%
    19:00 +17°C° 0.8 mm 0 m/S 623 mmHg 96%
    20:00 +16°C° 0.8 mm 0 m/S 623 mmHg 96%
    21:00 +16°C° 0.8 mm 0 m/S 624 mmHg 96%
    22:00 +16°C° 0.8 mm 0 m/S 624 mmHg 97%
    23:00 +16°C° 0.9 mm 0 m/S 624 mmHg 97%

    übermorgen, 19 September, Donnerstag

    Zeit Temperatur Niederschläge Wind Luftdruck Luftfeuchtigkeit
    00:00 +16°C° 0.9 mm 0 m/S 623 mmHg 97%
    01:00 +16°C° 0.9 mm 0 m/S 623 mmHg 98%
    02:00 +16°C° 0.5 mm 0 m/S 623 mmHg 98%
    03:00 +16°C° 0.5 mm 0 m/S 623 mmHg 97%
    04:00 +16°C° 0.5 mm 0 m/S 623 mmHg 97%
    05:00 +16°C° 0.2 mm 0 m/S 623 mmHg 97%
    06:00 +16°C° 0.2 mm 0 m/S 623 mmHg 97%
    07:00 +16°C° 0.2 mm 0 m/S 624 mmHg 97%
    08:00 +18°C° 0.1 mm 0 m/S 624 mmHg 90%
    09:00 +19°C° 0.1 mm 0 m/S 625 mmHg 82%
    10:00 +23°C° 0.1 mm 1 m/S 626 mmHg 75%
    11:00 +23°C° 1.2 mm 1 m/S 625 mmHg 77%
    12:00 +23°C° 1.2 mm 1 m/S 625 mmHg 79%
    13:00 +23°C° 1.2 mm 1 m/S 624 mmHg 81%
    14:00 +22°C° 1.5 mm 1 m/S 624 mmHg 84%
    15:00 +21°C° 1.5 mm 1 m/S 623 mmHg 87%
    16:00 +20°C° 1.5 mm 1 m/S 623 mmHg 90%
    17:00 +19°C° 1.5 mm 1 m/S 623 mmHg 93%
    18:00 +19°C° 1.5 mm 1 m/S 623 mmHg 95%
    19:00 +18°C° 1.5 mm 1 m/S 623 mmHg 98%
    20:00 +16°C° 0.9 mm 0 m/S 623 mmHg 98%
    21:00 +16°C° 0.9 mm 0 m/S 623 mmHg 98%
    22:00 +16°C° 0.9 mm 0 m/S 624 mmHg 98%
    23:00 +16°C° 0.6 mm 0 m/S 623 mmHg 98%

    20 September, Freitag

    Zeit Temperatur Niederschläge Wind Luftdruck Luftfeuchtigkeit
    00:00 +16°C° 0.6 mm 0 m/S 623 mmHg 98%
    01:00 +16°C° 0.6 mm 0 m/S 623 mmHg 98%
    02:00 +16°C° 0.5 mm 0 m/S 623 mmHg 98%
    03:00 +15°C° 0.5 mm 0 m/S 623 mmHg 98%
    04:00 +15°C° 0.5 mm 0 m/S 623 mmHg 97%
    05:00 +15°C° 1.1 mm 0 m/S 623 mmHg 97%
    06:00 +16°C° 1.1 mm 0 m/S 624 mmHg 96%
    07:00 +16°C° 1.1 mm 0 m/S 624 mmHg 95%
    08:00 +16°C° 0.5 mm 0 m/S 625 mmHg 93%
    09:00 +19°C° 0.5 mm 1 m/S 625 mmHg 91%
    10:00 +20°C° 0.5 mm 1 m/S 625 mmHg 89%
    11:00 +21°C° 0.5 mm 1 m/S 626 mmHg 82%
    12:00 +23°C° 0.5 mm 1 m/S 626 mmHg 75%
    13:00 +25°C° 0.5 mm 1 m/S 626 mmHg 67%
    14:00 +24°C° 0.9 mm 1 m/S 626 mmHg 71%
    15:00 +23°C° 0.9 mm 1 m/S 625 mmHg 75%
    16:00 +23°C° 0.9 mm 1 m/S 624 mmHg 78%
    17:00 +21°C° 0.9 mm 1 m/S 624 mmHg 83%
    18:00 +20°C° 0.9 mm 1 m/S 624 mmHg 88%
    19:00 +19°C° 0.9 mm 1 m/S 624 mmHg 93%
    20:00 +18°C° 0.4 mm 1 m/S 624 mmHg 94%
    21:00 +18°C° 0.4 mm 1 m/S 624 mmHg 94%
    22:00 +16°C° 0.4 mm 1 m/S 625 mmHg 94%
    23:00 +16°C° 0.2 mm 1 m/S 624 mmHg 94%

    21 September, Samstag

    Zeit Temperatur Niederschläge Wind Luftdruck Luftfeuchtigkeit
    00:00 +16°C° 0.2 mm 1 m/S 624 mmHg 94%
    01:00 +15°C° 0.2 mm 0 m/S 624 mmHg 94%
    02:00 +15°C° 0.1 mm 0 m/S 624 mmHg 94%
    03:00 +15°C° 0.1 mm 0 m/S 624 mmHg 94%
    04:00 +15°C° 0.1 mm 0 m/S 623 mmHg 94%
    05:00 +15°C° 0 mm 0 m/S 624 mmHg 93%
    06:00 +15°C° 0 mm 0 m/S 624 mmHg 92%
    07:00 +16°C° 0 mm 0 m/S 625 mmHg 91%
    08:00 +18°C° 0.1 mm 0 m/S 626 mmHg 82%
    09:00 +22°C° 0.1 mm 1 m/S 626 mmHg 74%
    10:00 +24°C° 0.1 mm 1 m/S 627 mmHg 65%
    11:00 +25°C° 0.5 mm 1 m/S 627 mmHg 64%
    12:00 +25°C° 0.5 mm 1 m/S 626 mmHg 64%
    13:00 +26°C° 0.5 mm 1 m/S 626 mmHg 63%
    14:00 +25°C° 0.9 mm 2 m/S 625 mmHg 67%
    15:00 +24°C° 0.9 mm 2 m/S 624 mmHg 71%
    16:00 +23°C° 0.9 mm 2 m/S 624 mmHg 76%
    17:00 +22°C° 0.8 mm 1 m/S 624 mmHg 82%
    18:00 +20°C° 0.8 mm 1 m/S 623 mmHg 87%
    19:00 +18°C° 0.8 mm 1 m/S 623 mmHg 93%
    20:00 +18°C° 0.2 mm 1 m/S 623 mmHg 93%
    21:00 +16°C° 0.2 mm 1 m/S 624 mmHg 93%
    22:00 +16°C° 0.2 mm 1 m/S 624 mmHg 92%
    23:00 +15°C° 0.1 mm 0 m/S 624 mmHg 92%

    22 September, Sonntag

    Zeit Temperatur Niederschläge Wind Luftdruck Luftfeuchtigkeit
    00:00 +15°C° 0.1 mm 0 m/S 624 mmHg 92%
    01:00 +15°C° 0.1 mm 0 m/S 623 mmHg 91%
    02:00 +15°C° 0.1 mm 0 m/S 623 mmHg 92%
    03:00 +15°C° 0.1 mm 0 m/S 623 mmHg 92%
    04:00 +15°C° 0.1 mm 0 m/S 623 mmHg 93%
    05:00 +15°C° 0.1 mm 0 m/S 624 mmHg 93%
    06:00 +15°C° 0.1 mm 0 m/S 624 mmHg 93%
    07:00 +15°C° 0.1 mm 0 m/S 625 mmHg 93%
    08:00 +18°C° 0 mm 0 m/S 626 mmHg 84%
    09:00 +22°C° 0 mm 1 m/S 627 mmHg 75%
    10:00 +24°C° 0 mm 1 m/S 628 mmHg 66%
    11:00 +24°C° 0.3 mm 1 m/S 627 mmHg 64%
    12:00 +25°C° 0.3 mm 1 m/S 627 mmHg 63%
    13:00 +25°C° 0.3 mm 2 m/S 626 mmHg 61%
    14:00 +24°C° 1.2 mm 2 m/S 625 mmHg 68%
    15:00 +23°C° 1.2 mm 2 m/S 625 mmHg 75%
    16:00 +21°C° 1.2 mm 2 m/S 624 mmHg 82%
    17:00 +21°C° 1 mm 1 m/S 624 mmHg 86%
    18:00 +19°C° 1 mm 1 m/S 624 mmHg 90%
    19:00 +18°C° 1 mm 1 m/S 624 mmHg 94%
    20:00 +16°C° 0.3 mm 1 m/S 624 mmHg 93%
    21:00 +16°C° 0.3 mm 1 m/S 624 mmHg 93%
    22:00 +16°C° 0.3 mm 1 m/S 625 mmHg 92%
    23:00 +15°C° 0 mm 1 m/S 624 mmHg 92%
    Mehr zeigen